Regional Weather Roundup
Issued by NWS

Home | Current Version | Previous Version | Text Only | Print | Product List | Glossary Off
Versions: 1 2 3 4 5 6 7 8 9 10 11 12 13 14 15 16 17 18 19 20 21 22 23 24 25 26 27

000
ASUS45 KBOU 272107
RWRCO

WEATHER ROUNDUP FOR COLORADO
NATIONAL WEATHER SERVICE DENVER/BOULDER CO
300 PM MDT FRI MAY 27 2016

NOTE: "FAIR" INDICATES FEW OR NO CLOUDS BELOW 12000 FEET WITH NO
SIGNIFICANT WEATHER AND/OR OBSTRUCTIONS TO VISIBILITY.

COZ001>005-013-030-031-272200-
...NORTHWEST COLORADO...

CITY           SKY/WX    TMP DP  RH WIND       PRES   REMARKS
CRAIG          LGT RAIN  51  37  58 S8        29.93F
HAYDEN         PTSUNNY   52  36  54 E14       29.94F
MEEKER         CLOUDY    54  38  54 N12       29.96R THUNDER
MOUNT WERNER   NOT AVBL
STEAMBOAT SPGS CLOUDY    47  40  76 CALM      29.97F
WALDEN         PTSUNNY   52  30  43 NE17      29.98S
$$

COZ006>008-011-272200-
...WEST CENTRAL VALLEYS...

CITY           SKY/WX    TMP DP  RH WIND       PRES   REMARKS
GRAND JUNCTION FAIR      65  36  34 N16G25    29.89S
MONTROSE       FAIR      67  32  27 SW16G24   29.92F
EAGLE          MOSUNNY   57  39  51 S8        29.94F
RIFLE          CLOUDY    59  37  44 W16G25    29.92R
DELTA          PTSUNNY   73  33  23 SW20G25   29.88R THUNDER
NUCLA          FAIR      63  36  36 NE6       29.98F
$$

COZ017>023-064>068-272200-
...SOUTHWEST COLORADO...

CITY           SKY/WX    TMP DP  RH WIND       PRES   REMARKS
DURANGO        FAIR      63  36  36 NE10G18   29.92F
CORTEZ         FAIR      70  29  21 W14G23    29.91F
PAGOSA SPRINGS CLOUDY    54  29  38 S5        29.98F
TELLURIDE      FAIR     N/A N/A N/A E7        30.10F
WOLF CREEK PAS CLOUDY    34  27  75 W3        30.16S
$$

COZ009-010-012-014-032>034-037-058>063-272200-
...CENTRAL COLORADO...

CITY           SKY/WX    TMP DP  RH WIND       PRES   REMARKS
ASPEN          FAIR      54  33  45 SW10G20   29.98F
BUENA VISTA    FAIR      58  21  23 N3        29.92F
COPPER MTN     NOT AVBL
BERTHOUD PASS  CLOUDY    27  18  69 N9G23     30.12S VSB<1/4 WCI  17
COTTONWOOD PAS PTSUNNY   54  18  24 NW3       30.01F
GUNNISON       FAIR      59  25  27 CALM      29.96F
KREMMLING      FAIR      59  27  29 NW10G26   29.94S
LEADVILLE      CLOUDY    43  29  57 N18G28    30.02S
MONARCH PASS   FAIR      36  25  64 N12G20    30.22F
SALIDA         PTSUNNY   62  28  27 NE9       29.99S
SUNLIGHT       LGT SNOW  34  32  93 NW5       30.15R WCI  30
WILKERSON PASS FAIR      36  32  87 E5        30.10S
$$

COZ069>075-272200-
...SAN LUIS VALLEY/SANGRE DE CRISTO MOUNTAINS...

CITY           SKY/WX    TMP DP  RH WIND       PRES   REMARKS
ALAMOSA        FAIR      58  33  39 NE7       29.93F
LA VETA PASS   PTSUNNY   43  32  65 CALM      30.05R THUNDER
SAGUACHE       FAIR      61  27  27 N8G26     29.93F
$$

COZ035-036-038>040-272200-
...NORTHERN COLORADO FRONT RANGE...

CITY           SKY/WX    TMP DP  RH WIND       PRES   REMARKS
DENVER INTL AP PTSUNNY   55  43  63 NE9       29.91S
DMNS CITY PARK   N/A     58  41  54 E8G22     29.90F
AURORA         LGT RAIN  50  46  88 E12       29.90F
FRONT RANGE AP PTSUNNY   54  45  71 N10       29.91F
ERIE MUNI ARPT FAIR      57  45  62 E10G16    29.90S
BOULDER MUN AP NOT AVBL
CENTENNIAL     PTSUNNY   55  40  56 N15       29.92S
BROOMFIELD     PTSUNNY   57  46  67 NE12      29.91S
FORT COLLINS   PTSUNNY   30 N/A N/A E16       29.91R WCI  19
LONGMONT       FAIR      62  47  57 E10       29.90S
$$

COZ041-046-047-076>085-087-088-272200-
...PIKES PEAK/PALMER DIVIDE AND SOUTHERN FOOTHILLS...

CITY           SKY/WX    TMP DP  RH WIND       PRES   REMARKS
COLO. SPRINGS  PTSUNNY   57  39  51 N29G37    29.91R
A. F. ACADEMY  PTSUNNY   52  41  66 N22G31    29.92R
SCHRIEVER AFB  NOT AVBL
ELLICOTT       FAIR     N/A N/A N/A N30G41    29.87S
FALCON         FAIR      49  40  70 N18G29    29.92F
FORT CARSON    PTSUNNY   56  40  54 N18G29    29.87F
LIMON          LGT RAIN  53  47  79 N21G26    29.86S
MONUMENT HILL  FAIR      48  41  76 N21       29.95F
TRINIDAD       FAIR      60  43  53 N16G25    29.88R
$$

COZ042>045-048>051-090-091-272200-
...NORTHEAST COLORADO...

CITY           SKY/WX    TMP DP  RH WIND       PRES   REMARKS
GREELEY ARPT   FAIR      59  46  63 NE17G24   29.88F
AKRON          FAIR      60  46  59 N30G40    29.85S
BURLINGTON     LGT RAIN  58  52  80 NE9       29.76F
WRAY           CLOUDY    61  50  67 N28G35    29.79F
STERLING       FAIR      59  46  63 N15       29.86S
HOLYOKE        NOT AVBL
FORT MORGAN    PTSUNNY   57  43  61 N21G26    29.88S
$$

COZ086-089-092>099-272200-
...SOUTHEAST COLORADO...

CITY           SKY/WX    TMP DP  RH WIND       PRES   REMARKS
PUEBLO         LGT RAIN  64  42  44 N30G39    29.83F
LA JUNTA       CLOUDY    62  47  57 N28G36    29.79R
LAMAR          PTSUNNY   59  51  75 N20G31    29.70R
SPRINGFIELD      N/A     61  44  53 NW31G41   29.73F
$$




USA.gov is the U.S. government's official web portal to all federal, state and local government web resources and services.